www.pogodaiklimat.ru

Погода и климат >> Архив погоды >> Индия >> Гоа >> Панаджи


ПОГОДА в Панаджи

  • Прогноз погоды в Панаджи
  • Монитор погоды в Панаджи

АРХИВ ПОГОДЫ в Панаджи

Время (UTC), дата Ветер
(напр.,м/с)
 
Видим.   Явления Облачность Т
(С)
Тd
(С)
f
(%)
Тe
(С)
Тes
(С)
Комфортность P
(гПа)
Po
(гПа)
Тmin
(С)
Tmax
(С)
R
(мм)
R24
(мм)
S
(см)
06 15.08 СЗ 1 4000 м слаб. дождь 10/6 300 м
[Frnb Ac As]
+25.0 +24.7 98 +35 +38 очень
душно
1010.2 1003.3 19
09 15.08 З 2 2000 м слаб. дождь 10/6 300 м
[Frnb Ac As]
+25.4 +25.1 98 +36 +38 очень
душно
1008.3 1001.4 26
12 15.08 СЗ 2 4000 м в посл. час дождь 10/6 300 м
[Frnb Ac As]
+25.8 +25.3 97 +37 +38 очень
душно
1006.8 999.9 +26.2 27
15 15.08 штиль 0 4000 м {дождь} 8/5 300 м
[Frnb Ac As]
+24.6 +24.3 98 +34 +34 очень
душно
1009.0 1002.1 28
18 15.08 СЗ 1 2000 м дождь 10/6 300 м
[Frnb As op]
+25.0 +24.7 98 +35 +35 очень
душно
1009.4 1002.5 31
21 15.08 штиль 0 4000 м {дождь} 8/4 300 м
[Frnb As op]
+24.8 +24.5 98 +35 +35 очень
душно
1008.3 1001.4 37
00 16.08 С 1 4000 м {дождь} 6/4 300 м
[Sc diur, vesp Ci sp]
+25.5 +25.1 98 +37 +37 очень
душно
1008.2 1001.3 39
03 16.08 СЗ 2 4000 м {дождь} 10/5 300 м
[Frnb Ac trans Ci sp]
+26.8 +26.2 97 +41 +42 опасность
перегрева
1009.0 1002.1 +24.1 34
06 16.08 СЗ 4 4000 м {дождь} 8/4 300 м
[Frnb Ac trans Ci sp]
+28.8 +26.3 86 +44 +49 опасность
перегрева
1009.0 1002.2 3
09 16.08 СЗ 2 4000 м слаб. морось {дождь} 9/4 300 м
[Frnb Ac trans Ci sp]
+29.6 +26.6 84 +46 +52 опасность
перегрева
1007.8 1001.0 3
12 16.08 СЗ 2 4000 м {дождь} 9/4 600 м
[Sc diur, vesp Ac trans Ci sp]
+29.0 +25.9 83 +43 +44 опасность
перегрева
1006.7 999.9 +30.0 3
15 16.08 СЗ 2 4000 м в посл. час дождь 10/5 300 м
[Frnb Ac As]
+25.8 +24.4 92 +36 +36 очень
душно
1008.0 1001.1 3
18 16.08 штиль 0 4000 м в посл. час дождь 8/4 300 м
[Frnb Ac trans]
+26.0 +24.9 94 +37 +37 очень
душно
1008.8 1001.9 4
21 16.08 З 1 2000 м слаб. дождь 10/5 300 м
[Frnb Ac As]
+26.0 +25.2 95 +37 +37 очень
душно
1007.5 1000.6 7
00 17.08 штиль 0 2000 м слаб. дождь 10/5 300 м
[Frnb Ac As]
+25.4 +25.1 98 +36 +36 очень
душно
1007.0 1000.1 7
03 17.08 ЮВ 1 4000 м {дождь} 9/5 300 м
[Frnb Ac lent Ci sp]
+26.4 +25.8 97 +39 +41 очень
душно
1008.2 1001.3 +25.6 7
06 17.08 З 3 4000 м {дождь} 8/4 300 м
[Frnb Ac trans Ci sp]
+29.6 +26.5 83 +45 +52 опасность
перегрева
1008.7 1001.9
09 17.08 СЗ 3 4000 м 5/1 600 м
[Cu med, cong Ac cuf]
+31.0 +26.3 76 +47 +56 опасность
перегрева
1007.4 1000.6 0.0
12 17.08 З 2 4000 м 9/4 600 м
[Frnb Ac As Ci sp]
+29.8 +25.9 80 +45 +46 опасность
перегрева
1006.6 999.8 +26.0 +31.0
15 17.08 З 1 4000 м 9/5 600 м
[Frnb Ac trans Ci sp]
+27.6 +24.8 85 +39 +39 очень
душно
1006.1 999.3
18 17.08 Ю 1 4000 м дождь 10/9 300 м
[Frnb Ac trans]
+27.0 +25.6 92 +40 +40 очень
душно
1008.8 1001.9 0.8
21 17.08 СЗ 1 4000 м {морось} 6/5 600 м
[Cb calv As trans]
+26.0 +25.1 95 +37 +37 очень
душно
1008.8 1001.9 1
00 18.08 В 1 4000 м 4/1 600 м
[St Ac trans]
+25.6 +25.3 98 +37 +37 очень
душно
1008.7 1001.8 1
03 18.08 штиль 0 4000 м слаб. дождь {морось} 8/4 300 м
[Frnb Ac trans]
+27.0 +26.2 95 +41 +43 опасность
перегрева
1009.4 1002.5 +25.0 1
06 18.08 З 1 4000 м слаб. дождь {морось} 10/8 300 м
[Frnb Ac trans]
+27.0 +25.3 90 +39 +41 очень
душно
1009.9 1003.0 4
09 18.08 С 1 4000 м слаб. дождь 10/9 300 м
[Frnb Ac trans]
+26.0 +25.1 95 +37 +38 очень
душно
1008.8 1001.9 16
12 18.08 штиль 0 4000 м слаб. дождь {морось} 8/4 300 м
[Frnb Ac trans]
+27.2 +26.1 94 +41 +42 опасность
перегрева
1008.2 1001.3 +28.6 18
15 18.08 З 1 4000 м 8/4 300 м
[Frnb Ac trans]
+27.0 +26.2 95 +41 +41 опасность
перегрева
1008.8 1001.9 18
18 18.08 штиль 0 4000 м 8/4 300 м
[Frnb Ac trans Ci sp]
+26.0 +25.7 98 +38 +38 очень
душно
1009.8 1002.9 18
21 18.08 В 2 4000 м {дождь} 8/4 300 м
[Frnb Ac As]
+25.8 +25.5 98 +38 +38 очень
душно
1008.5 1001.6 18
00 19.08 штиль 0 4000 м {дождь} 8/4 300 м
[Frnb Ac trans Ci sp]
+25.4 +25.1 98 +36 +36 очень
душно
1007.9 1001.0 18
03 19.08 штиль 0 2000 м слаб. дождь {морось} 8/3 300 м
[Frnb Ac trans Ci sp]
+26.6 +26.0 97 +40 +43 очень
душно
1010.3 1003.4 +24.6 +28.6 19
06 19.08 штиль 0 4000 м {дождь, морось} 8/4 300 м
[Sc diur, vesp Ac trans Ci sp]
+29.4 +26.6 85 +45 +57 опасность
перегрева
1010.7 1003.9
09 19.08 З 2 4000 м в посл. час дождь 10/8 300 м
[Frnb Ac trans]
+30.4 +26.2 78 +46 +47 опасность
перегрева
1009.0 1002.2 0.0
12 19.08 З 2 4000 м {дождь} 10/4 300 м
[Frnb Ac trans Ci sp]
+28.4 +25.6 85 +42 +43 опасность
перегрева
1008.0 1001.2 +30.6 0.0
15 19.08 штиль 0 4000 м 8/8 600 м
[Sc diur, vesp Ac trans]
+27.2 +26.0 93 +41 +41 опасность
перегрева
1009.4 1002.5 0.0
18 19.08 штиль 0 4000 м 5/1 600 м
[Sc diur, vesp Ac trans]
+26.6 +25.5 94 +39 +39 очень
душно
1010.9 1004.0 0.8
21 19.08 штиль 0 4000 м 4/1 600 м
[Sc diur, vesp Ac lent]
+25.6 +25.3 98 +37 +37 очень
душно
1009.2 1002.3 0.8
00 20.08 штиль 0 4000 м 5/3 600 м
[Sc diur, vesp Ac lent]
+25.2 +24.9 98 +36 +36 очень
душно
1008.9 1002.0 0.8
03 20.08 штиль 0 1000 м дымка {туман} 8/3 600 м
[Sc Ac trans Ci sp]
+26.0 +25.5 97 +38 +41 очень
душно
1010.8 1003.9 +24.5 0.8
06 20.08 З 2 4000 м мгла {туман} 8/3 300 м
[Frnb Ac trans Ci sp]
+29.2 +25.0 78 +42 +51 опасность
перегрева
1010.7 1003.9
09 20.08 СЗ 2 4000 м 6/3 300 м
[Sc diur, vesp Ac trans Ci sp]
+30.8 +26.0 76 +46 +56 опасность
перегрева
1008.6 1001.8
12 20.08 СЗ 2 4000 м 6/3 300 м
[Sc diur, vesp Ac trans Ci sp]
+29.6 +25.1 77 +43 +44 опасность
перегрева
1007.2 1000.4 +31.0
15 20.08 штиль 0 4000 м 5/3 600 м
[Sc Ac trans]
+27.4 +24.9 86 +39 +39 очень
душно
1009.2 1002.3
18 20.08 штиль 0 4000 м 5/5 600 м
[Sc]
+27.0 +25.0 89 +39 +39 очень
душно
1009.9 1003.0
21 20.08 штиль 0 2000 м слаб. дождь 10/8 300 м
[Frnb Ac trans]
+26.0 +24.9 94 +37 +37 очень
душно
1008.6 1001.7 3
00 21.08 штиль 0 4000 м {дождь} 6/4 300 м
[Frnb Ac trans]
+25.6 +24.8 95 +36 +36 очень
душно
1008.2 1001.3 3
03 21.08 штиль 0 4000 м мгла 8/4 300 м
[Frnb Ac trans Ci fib]
+27.4 +26.0 92 +41 +44 опасность
перегрева
1010.1 1003.2 +24.9 3
06 21.08 СЗ 2 4000 м в посл. час морось 9/5 300 м
[Frnb Ac trans Ci sp]
+29.4 +26.0 82 +44 +50 опасность
перегрева
1010.2 1003.4 0.2
09 21.08 СЗ 4 4000 м мгла 8/4 300 м
[Frnb Ac trans Ci sp]
+31.2 +25.9 73 +46 +51 опасность
перегрева
1008.2 1001.4 0.2
12 21.08 СЗ 3 4000 м {ливн. осадки} 8/4 300 м
[Frnb Ac trans Ci sp]
+29.0 +24.7 78 +41 +42 опасность
перегрева
1007.7 1000.9 +31.4 0.8
15 21.08 СВ 1 4000 м 4/1 300 м
[Sc diur, vesp Ac trans Ci sp]
+27.4 +24.5 84 +39 +39 очень
душно
1009.7 1002.8 0.8
18 21.08 СВ 1 4000 м {дождь} 6/4 300 м
[Frnb Ac trans]
+26.2 +25.3 95 +38 +38 очень
душно
1010.1 1003.2 3
21 21.08 СВ 1 4000 м {дождь} 8/5 300 м
[Frnb Ac trans]
+25.0 +24.7 98 +35 +35 очень
душно
1008.0 1001.1 22
00 22.08 штиль 0 4000 м {дождь} 5/3 300 м
[Frnb Ac trans]
+25.0 +24.7 98 +35 +35 очень
душно
1007.0 1000.1 22
03 22.08 штиль 0 4000 м {дождь} 8/4 <50 м
[Frnb Ac trans Ci sp]
+26.4 +25.6 95 +39 +42 очень
душно
1009.2 1002.3 +24.4 25

 

Местоположение метеостанции Панаджи (Гоа, Индия): широта 15.48 долгота 73.82 высота над уровнем моря 60 м.

В архиве по умолчанию представлена погода в Панаджи за последнюю неделю. Архивные данные за месяц целиком и за предыдущие месяцы, начиная с января 2011 года, Вы можете получить, выбрав интересующий диапазон дат из раскрывающегося списка и нажав кнопку "Ввод!".


*Определитесь, кто Вы:
робот инопланетянин человек

Внимание! Время в таблицах - всемирное. Для получения местного времени необходимо прибавить поправку, которая равна 5.5 ч.

Смотрите также архив погоды в соседних городах и на ближайших метеорологических станциях:

Погода в Мормугао (Гоа, Индия) (8 км)
Погода в Венгерле (Махараштра, Индия) (48 км)
Погода в Карваре (Карнатака, Индия) (85 км)
Погода в Белгауме (Карнатака, Индия) (86 км)
Погода в Белгаум аэропорту (Карнатака, Индия) (95 км)
Погода в Дхарваде (Карнатака, Индия) (124 км)
Погода в Колхапуре (Махараштра, Индия) (143 км)
Погода в Хоннаваре (Карнатака, Индия) (150 км)
Погода в Сангли (Махараштра, Индия) (174 км)
Погода в Ширали (Карнатака, Индия) (174 км)

Пояснения к столбцам:

Ветер - указаны скорость ветра в м/с - средняя за 10 мин, порывы в срок и между сроками (в фигурных скобках) и направление, откуда дует ветер: С - северный, СВ - северо-восточный, В - восточный, ЮВ - юго-восточный, Ю - южный, ЮЗ - юго-западный, З - западный, СЗ - северо-западный.
Видимость - горизонтальная дальность видимости в метрах или километрах. При видимости от 1 до 10 км при отсутствии осадков обычно наблюдается дымка, при ухудшении видимости до 1 км и менее - туман. В сухую погоду видимость может ухудшаться дымом, пылью или мглою.
Явления - указаны атмосферные явления, наблюдавшиеся в срок или в последний час перед сроком; фигурными скобками обозначены явления, наблюдавшиеся между сроками (за 1-3 часа до срока); квадратными скобками обозначены град или гололедные отложения с указанием их диаметра в мм.
Облачность - указаны через наклонную черту общая и нижняя облачность в баллах и высота нижней границы облаков в метрах; квадратными скобками обозначены формы облаков: Ci - перистые, Cs - перисто-слоистые, Cc - перисто-кучевые, Ac - высококучевые, As - высокослоистые, Sc - слоисто-кучевые, Ns - слоисто-дождевые, Cu - кучевые, Cb - кучево-дождевые. Подробнее классификацию облаков см. в Атласе облаков (PDF).
T - Температура воздуха - температура, измеренная на высоте 2 м над землей.
Td - Температура точки росы - температура, при понижении до которой содержащийся в воздухе водяной пар достигнет насыщения.
f - Относительная влажность воздуха - влажноcть воздуха, измеренная на высоте 2 м над землей.
Te - Эффективная температура - температура, которую ощущает одетый по сезону человек в тени. Характеристика душности погоды. При расчете учитывается влияние влажности воздуха и скорости ветра на теплоощущения человека.
Tes - Эффективная температура на солнце - температура, которую ощущает человек, с поправкой на солнечный нагрев. Характеристика знойности погоды. Зависит от высоты солнца над горизонтом, облачности и скорости ветра. Ночью, в пасмурную погоду, а также при ветре 12 м/с и более поправка равна нулю.
P - Атмосферное давление - приведенное к уровню моря атмосферное давление.
Po - Атмосферное давление - измеренное на уровне метеостанции атмосферное давление.
Tmin - Минимальная температура - минимум температуры воздуха на высоте 2 м над землей.
Tmax - Максимальная температура - максимум температуры воздуха на высоте 2 м над землей.
R - Количество осадков - Количество выпавших осадков за период времени, мм. При наведении курсора мыши на число - период времени, за который выпало указанное количество осадков.
R24 - Количество осадков - Количество выпавших осадков за 24 часа, мм.
S - Снежный покров - Высота снежного покрова, см. При наведении курсора мыши на число - состояние снежного покрова и степень покрытия местности в баллах.